Flight Track Log - Related Links

Times and Time Zones

All times are in EDT time to prevent confusion due to time zone crossing. See the UPS617 flight status page for this flight to view local times or setup timezone preferences in your user account.

Time Position Orientation Groundspeed Altitude Reporting Facility
EDT Latitude Longitude Course Direction KTS MPH feet Rate Location/Type
Tue 11:59:52 PM 40.6883 -89.7197 189° South 190 219 2,600  Level Chicago Center
Wed 12:05:00 AM 40.6628 -89.6936 189° South  Level FlightAware Approximate
Wed 12:05:03 AM 40.5006 -89.2367 123° Southeast 420 483 17,000  Level FlightAware ADS-B
Wed 12:06:15 AM 40.4088 -89.0506 123° Southeast 433 498 20,300 2,577 Climbing FlightAware ADS-B
Wed 12:07:25 AM 40.3493 -88.9304 123° Southeast 447 514 23,100 2,457 Climbing FlightAware ADS-B
Wed 12:08:00 AM 40.2922 -88.8157 123° Southeast 447 514 24,600 2,560 Climbing FlightAware ADS-B
Wed 12:08:40 AM 40.2474 -88.7258 123° Southeast 444 511 26,300 1,714 Climbing FlightAware ADS-B
Wed 12:09:24 AM 40.2310 -88.6931 123° Southeast 449 517 27,000 472 Climbing FlightAware ADS-B
Wed 12:10:09 AM 40.1646 -88.5599 123° Southeast 452 520 27,000  Level FlightAware ADS-B
Wed 12:13:46 AM 39.8999 -88.0395 124° Southeast 444 511 27,000  Level FlightAware ADS-B
Wed 12:14:34 AM 39.8494 -87.9414 124° Southeast 442 509 27,000  Level Indianapolis Center
Wed 12:19:56 AM 39.4757 -87.2345 133° Southeast 432 497 27,000  Level FlightAware ADS-B
Wed 12:20:40 AM 39.4275 -87.1733 133° Southeast 435 501 27,000  Level Indianapolis Center
Wed 12:21:41 AM 39.3425 -87.0672 136° Southeast 432 497 27,000 -347 Level Indianapolis Center
Wed 12:22:41 AM 39.2583 -86.9639 136° Southeast 412 474 26,300 -1,438 Descending Indianapolis Center
Wed 12:23:42 AM 39.1789 -86.8658 136° Southeast 397 457 24,100 -2,213 Descending Indianapolis Center
Wed 12:24:43 AM 39.0944 -86.7628 137° Southeast 379 436 21,800 -2,164 Descending Indianapolis Center
Wed 12:25:44 AM 39.0197 -86.6719 137° Southeast 368 423 19,700 -2,311 Descending Indianapolis Center
Wed 12:26:45 AM 38.9419 -86.5778 137° Southeast 358 412 17,100 -2,361 Descending Indianapolis Center
Wed 12:27:46 AM 38.8689 -86.4897 137° Southeast 352 405 14,900 -2,115 Descending Indianapolis Center
Wed 12:28:47 AM 38.8050 -86.4119 136° Southeast 348 400 12,800 -1,438 Descending Indianapolis Center
Wed 12:29:47 AM 38.7719 -86.2983 110° East 329 379 12,000 -1,091 Descending Indianapolis Center
Wed 12:30:48 AM 38.7375 -86.1983 114° Southeast 304 350 10,600 -1,475 Descending Indianapolis Center
Wed 12:31:49 AM 38.7014 -86.1028 116° Southeast 299 344 9,000 -1,525 Descending Indianapolis Center
Wed 12:32:50 AM 38.6650 -86.0100 117° Southeast 287 330 7,500 -1,426 Descending Indianapolis Center
Wed 12:33:51 AM 38.6189 -85.9325 127° Southeast 275 316 6,100 -744 Descending Indianapolis Center
Wed 12:34:51 AM 38.5661 -85.8678 136° Southeast 263 303 6,000 -446 Descending Indianapolis Center
Wed 12:35:52 AM 38.4992 -85.8364 160° South 257 296 5,200 -984 Descending Indianapolis Center
Wed 12:36:53 AM 38.4311 -85.8131 165° South 254 292 4,000 -590 Descending Indianapolis Center
Wed 12:37:54 AM 38.3644 -85.7947 168° South 252 290 4,000 -496 Level Indianapolis Center
Wed 12:38:54 AM 38.3044 -85.7711 163° South 242 278 3,000 -843 Descending Indianapolis Center
Wed 12:39:55 AM 38.2558 -85.7550 165° South 208 239 2,300 -689 Descending Indianapolis Center
Wed 12:42:00 AM 38.1741 -85.7365 166° South  Level Estimated
Wed 12:49:00 AM 38.1741 -85.7365 North  Level Estimated

Login

Don't have an account? Register now (free) for customized features, flight alerts, and more!